Date String (YYYY-MM-DD hh:mm:ss) UTC,Instrument flags,absolute air pressure of the measurement (hPa),sample flow rate (lpm),inlet stack bypass flow (lpm),air temperature of the measurement (°C),ambient temperature measured by the external sensor (°C),aerosol sample conditioner tube jacket temperature (°C),OPC LED temperature (°C),internal box temperature (°C),relative humidity of the measurement (%),span deviation,mass concentration of particles derived from Lorenz-Mie calculation of OPC scattering (μg/m³),mass concentration of particles derived from Lorenz-Mie calculation of OPC scattering (μg/m³),mass concentration of particles derived from Lorenz-Mie calculation of OPC scattering (μg/m³)
DateTimeUTC,F1_M11,P_M11,Q1_M11,Q2_M11,T1_M11,T2_M11,T3_M11,T4_M11,T5_M11,U1_M11,ZSPAN_M11,X0_M11,X2_M11,X1_M11
2023-08-29 05:00:00,SystemResetWarning,0838.6,4.99,000.00,028.3,027.1,000.0,036.8,030.0,31.0,0000.0,0004.21,0002.50,0001.90
2023-08-29 05:01:00,SystemResetWarning,0838.6,4.99,000.00,028.3,027.1,000.0,036.8,030.0,30.9,0000.0,0004.23,0002.48,0001.90
2023-08-29 05:02:00,SystemResetWarning,0838.6,5.00,000.00,028.4,027.2,000.0,036.9,030.0,30.6,0000.0,0004.42,0002.53,0001.92
2023-08-29 05:03:00,SystemResetWarning,0838.6,5.01,000.00,028.4,027.3,000.0,036.9,030.1,30.6,0000.0,0004.60,0002.59,0001.94
2023-08-29 05:04:00,SystemResetWarning,0838.6,5.01,000.00,028.4,027.3,000.0,036.9,030.1,30.4,0000.0,0004.63,0002.65,0001.96
2023-08-29 05:05:00,SystemResetWarning,0838.6,5.01,000.00,028.4,027.3,000.0,036.9,030.1,30.4,0000.0,0004.87,0002.73,0001.98
2023-08-29 05:06:00,SystemResetWarning,0838.6,4.99,000.00,028.5,027.4,000.0,036.9,030.1,30.6,0000.0,0005.88,0002.76,0001.99
2023-08-29 05:07:00,SystemResetWarning,0838.6,4.99,000.00,028.5,027.4,000.0,037.0,030.2,30.6,0000.0,0005.96,0002.78,0002.00
2023-08-29 05:08:00,SystemResetWarning,0838.6,5.00,000.00,028.5,027.4,000.0,037.0,030.2,30.6,0000.0,0005.65,0002.79,0002.01
2023-08-29 05:09:00,SystemResetWarning,0838.6,5.00,000.00,028.5,027.3,000.0,037.0,030.2,30.6,0000.0,0005.58,0002.76,0002.01
2023-08-29 05:10:00,SystemResetWarning,0838.6,5.00,000.00,028.5,025.6,000.0,036.9,030.0,30.7,0000.0,0005.92,0002.77,0002.01
2023-08-29 05:11:00,SystemResetWarning,0838.6,5.00,000.00,028.4,024.3,000.0,036.7,029.7,31.3,0000.0,0006.08,0002.79,0002.01
2023-08-29 05:12:00,SystemResetWarning,0838.6,5.01,000.00,028.3,024.2,000.0,036.7,029.3,31.5,0000.0,0006.18,0002.81,0002.01
2023-08-29 05:13:00,SystemResetWarning,0838.6,5.01,000.00,028.2,024.5,000.0,036.7,029.3,31.7,0000.0,0006.57,0002.86,0002.02
2023-08-29 05:14:00,SystemResetWarning,0838.6,5.00,000.00,028.1,024.9,000.0,036.8,029.4,31.8,0000.0,0007.09,0002.85,0002.02
2023-08-29 05:15:00,SystemResetWarning,0838.6,5.00,000.00,028.1,025.2,000.0,036.8,029.5,31.9,0000.0,0007.21,0002.80,0002.02
2023-08-29 05:16:00,SystemResetWarning,0838.6,5.01,000.00,028.1,025.6,000.0,036.8,029.6,31.9,0000.0,0007.18,0002.78,0002.02
2023-08-29 05:17:00,SystemResetWarning,0838.6,4.99,000.00,028.1,025.9,000.0,036.8,029.6,31.9,0000.0,0006.57,0002.81,0002.02
2023-08-29 05:18:00,SystemResetWarning,0838.6,5.00,000.00,028.1,026.2,000.0,036.8,029.7,31.8,0000.0,0006.13,0002.78,0002.01
2023-08-29 05:19:00,SystemResetWarning,0838.6,5.00,000.00,028.1,026.3,000.0,036.8,029.7,31.7,0000.0,0006.06,0002.75,0002.00
2023-08-29 05:20:00,SystemResetWarning,0838.6,5.00,000.00,028.2,026.5,000.0,036.8,029.8,31.5,0000.0,0006.14,0002.77,0002.00
2023-08-29 05:21:00,SystemResetWarning,0838.6,5.00,000.00,028.2,026.7,000.0,036.8,029.8,31.4,0000.0,0005.90,0002.75,0001.99
2023-08-29 05:22:00,SystemResetWarning,0838.6,4.99,000.00,028.2,026.8,000.0,036.8,029.8,31.2,0000.0,0005.54,0002.70,0001.96
2023-08-29 05:23:00,SystemResetWarning,0838.6,4.99,000.00,028.2,026.9,000.0,036.8,029.9,31.0,0000.0,0005.40,0002.69,0001.96
2023-08-29 05:24:00,SystemResetWarning,0838.6,4.99,000.00,028.2,026.9,000.0,036.8,029.9,31.0,0000.0,0005.08,0002.66,0001.97
2023-08-29 05:25:00,SystemResetWarning,0838.6,5.01,000.00,028.3,027.0,000.0,036.8,029.9,30.8,0000.0,0004.36,0002.63,0001.96
2023-08-29 05:26:00,SystemResetWarning,0838.5,5.01,000.00,028.3,027.1,000.0,036.8,029.9,30.7,0000.0,0004.25,0002.67,0001.95
2023-08-29 05:27:00,SystemResetWarning,0838.6,5.00,000.00,028.3,027.1,000.0,036.9,030.0,30.6,0000.0,0004.23,0002.66,0001.96
2023-08-29 05:28:00,SystemResetWarning,0838.6,5.00,000.00,028.3,027.2,000.0,036.9,030.0,30.6,0000.0,0004.25,0002.63,0001.96
2023-08-29 05:29:00,SystemResetWarning,0838.6,4.99,000.00,028.4,027.2,000.0,036.9,030.0,30.5,0000.0,0004.28,0002.62,0001.97
2023-08-29 05:30:00,SystemResetWarning,0838.6,5.00,000.00,028.4,027.2,000.0,036.9,030.1,30.4,0000.0,0004.40,0002.65,0001.98
2023-08-29 05:31:00,SystemResetWarning,0838.6,5.01,000.00,028.4,027.3,000.0,036.9,030.1,30.4,0000.0,0004.41,0002.67,0001.97
2023-08-29 05:32:00,SystemResetWarning,0838.6,4.99,000.00,028.4,027.3,000.0,036.9,030.1,30.3,0000.0,0004.38,0002.67,0001.97
2023-08-29 05:33:00,SystemResetWarning,0838.5,4.99,000.00,028.5,027.4,000.0,037.0,030.1,30.2,0000.0,0004.31,0002.65,0001.97
2023-08-29 05:34:00,SystemResetWarning,0838.4,4.99,000.00,028.5,027.4,000.0,037.0,030.2,30.1,0000.0,0004.27,0002.62,0001.96
2023-08-29 05:35:00,SystemResetWarning,0838.4,5.00,000.00,028.5,027.4,000.0,037.0,030.2,30.1,0000.0,0004.13,0002.58,0001.94
2023-08-29 05:36:00,SystemResetWarning,0838.4,5.01,000.00,028.5,027.4,000.0,037.0,030.2,29.9,0000.0,0004.17,0002.58,0001.93
2023-08-29 05:37:00,SystemResetWarning,0838.4,5.00,000.00,028.6,027.4,000.0,037.1,030.2,29.9,0000.0,0004.06,0002.54,0001.91
2023-08-29 05:38:00,SystemResetWarning,0838.4,4.99,000.00,028.6,027.1,000.0,037.0,030.2,29.7,0000.0,0004.08,0002.51,0001.90
2023-08-29 05:39:00,SystemResetWarning,0838.4,4.99,000.00,028.5,025.2,000.0,036.9,029.9,29.7,0000.0,0003.83,0002.44,0001.88
2023-08-29 05:40:00,SystemResetWarning,0838.4,5.01,000.00,028.4,024.2,000.0,036.8,029.6,30.7,0000.0,0003.69,0002.40,0001.87
2023-08-29 05:41:00,SystemResetWarning,0838.4,5.01,000.00,028.3,024.2,000.0,036.8,029.3,31.1,0000.0,0003.63,0002.37,0001.86
2023-08-29 05:42:00,SystemResetWarning,0838.4,4.99,000.00,028.2,024.5,000.0,036.8,029.3,31.9,0000.0,0003.69,0002.38,0001.87
2023-08-29 05:43:00,SystemResetWarning,0838.4,5.00,000.00,028.1,024.9,000.0,036.8,029.5,31.8,0000.0,0003.77,0002.40,0001.88
2023-08-29 05:44:00,SystemResetWarning,0838.4,5.00,000.00,028.1,025.3,000.0,036.8,029.5,31.8,0000.0,0003.92,0002.45,0001.88
2023-08-29 05:45:00,SystemResetWarning,0838.4,4.99,000.00,028.1,025.7,000.0,036.8,029.6,31.7,0000.0,0004.03,0002.45,0001.90
2023-08-29 05:46:00,SystemResetWarning,0838.4,5.00,000.00,028.1,026.0,000.0,036.8,029.7,31.7,0000.0,0006.05,0002.50,0001.91
2023-08-29 05:47:00,SystemResetWarning,0838.4,5.00,000.00,028.1,026.2,000.0,036.8,029.7,31.5,0000.0,0006.22,0002.54,0001.92
2023-08-29 05:48:00,SystemResetWarning,0838.4,5.00,000.00,028.2,026.4,000.0,036.8,029.8,31.2,0000.0,0006.50,0002.55,0001.92
2023-08-29 05:49:00,SystemResetWarning,0838.4,5.00,000.00,028.2,026.5,000.0,036.8,029.8,31.2,0000.0,0006.75,0002.56,0001.93
2023-08-29 05:50:00,SystemResetWarning,0838.4,4.99,000.00,028.2,026.7,000.0,036.8,029.8,31.6,0000.0,0006.89,0002.60,0001.94
2023-08-29 05:51:00,SystemResetWarning,0838.4,4.99,000.00,028.2,026.8,000.0,036.8,029.8,31.6,0000.0,0007.00,0002.64,0001.95
2023-08-29 05:52:00,SystemResetWarning,0838.4,5.00,000.00,028.2,026.9,000.0,036.8,029.9,31.3,0000.0,0007.08,0002.69,0001.96
2023-08-29 05:53:00,SystemResetWarning,0838.4,5.00,000.00,028.3,027.0,000.0,036.8,029.9,31.3,0000.0,0007.07,0002.71,0001.96
2023-08-29 05:54:00,SystemResetWarning,0838.4,5.00,000.00,028.3,027.0,000.0,036.9,029.9,31.0,0000.0,0006.95,0002.68,0001.97
2023-08-29 05:55:00,SystemResetWarning,0838.4,5.00,000.00,028.3,027.1,000.0,036.9,030.0,30.7,0000.0,0006.85,0002.65,0001.96
2023-08-29 05:56:00,SystemResetWarning,0838.4,5.00,000.00,028.3,027.1,000.0,036.9,030.0,30.5,0000.0,0007.00,0002.68,0001.96
2023-08-29 05:57:00,SystemResetWarning,0838.4,5.01,000.00,028.4,027.2,000.0,036.9,030.0,30.9,0000.0,0005.46,0002.67,0001.97
2023-08-29 05:58:00,SystemResetWarning,0838.4,5.00,000.00,028.4,027.2,000.0,036.9,030.0,31.0,0000.0,0004.79,0002.61,0001.97
2023-08-29 05:59:00,SystemResetWarning,0838.4,5.00,000.00,028.4,027.3,000.0,036.9,030.1,31.0,0000.0,0004.45,0002.56,0001.97
